Find Starlink 31977

NORAD ID: 59892 Int'l Des: 2024-100 Owner: SPXS Country: US Constellation: starlink operational
LEOCIRCULAR

現在のビュー

3D地球を読み込み中...

About Starlink 31977

Starlink 31977 (NORAD 59892) is a starlink constellation satellite (v2 mini) launched May 28, 2024 by SPXS of US. It operates in LEO, CIRCULAR orbit with a mass of 730.00 kg.

Starlink 31977について

説明を読み込み中...

次回通過

Passes for default location (London). Set your location on the main map for personalized predictions.

高度履歴

Loading altitude history...

軌道要素

1 59892U 24100H 26197.12927419 .00001022 00000-0 46656-4 0 9996
2 59892 43.0001 112.8067 0000992 261.7833 98.2906 15.27575702120882
Epoch: Jul 16, 2026 • Age: 14 hours

現在のステータス

高度 482.7 km
遠地点 / 近地点 N/A
速度 7.63 km/s
衛星直下点 18.71°N, 64.15°W
打ち上げ日 May 28, 2024
運用期間 2.1 years
タイプ internet

技術仕様

分類 Payload
質量 730.00 kg
乾燥質量 700.00 kg
総質量 730.00 kg
長さ 0.30 m
直径 4.10 m
スパン 29.00 m
形状 Box + pan
製造者 SPXS
バスタイプ Starlink V2M
フェーズステータス In Orbit
所有者/国 SPXS/US

Most Searched